QPF
0.02 0.02 0.03 0.03 0.03 0.03 0.03 0.04 0.05 0.06 0.07 0.08 0.07 0.07 0.05 0.05 0.04 0.04 0.03 0.03 0.04 0.05 0.05 0.04 0.02 0.03 0.04 0.05 0.05 0.04 0.04 0.04 0.04 0.05 0.04 0.05 0.07 0.08 0.07 0.06 0.07 0.09 0.07
0.02 0.02 0.03 0.03 0.03 0.03 0.03 0.04 0.05 0.05 0.06 0.06 0.07 0.07 0.06 0.05 0.06 0.05 0.04 0.04 0.04 0.04 0.03 0.02 0.02 0.02 0.03 0.04 0.05 0.05 0.05 0.05 0.05 0.05 0.05 0.05 0.06 0.06 0.06 0.06 0.07 0.09 0.09
0.02 0.02 0.02 0.03 0.03 0.02 0.03 0.03 0.04 0.05 0.06 0.07 0.05 0.04 0.05 0.05 0.04 0.03 0.03 0.04 0.04 0.04 0.03 0.03 0.03 0.03 0.03 0.03 0.06 0.07 0.06 0.06 0.06 0.06 0.05 0.03 0.03 0.04 0.06 0.06 0.07 0.09 0.09
0.01 0.01 0.02 0.03 0.03 0.03 0.03 0.03 0.04 0.05 0.04 0.03 0.02 0.02 0.02 0.02 0.02 0.03 0.04 0.04 0.04 0.04 0.04 0.04 0.04 0.03 0.02 0.03 0.05 0.07 0.06 0.06 0.06 0.06 0.05 0.03 0.02 0.02 0.05 0.07 0.08 0.09 0.09
0.02 0.02 0.03 0.03 0.03 0.04 0.03 0.04 0.04 0.03 0.02 0.02 0.01 0.01 0.01 0.02 0.03 0.06 0.06 0.06 0.06 0.06 0.05 0.04 0.04 0.03 0.03 0.03 0.04 0.07 0.05 0.05 0.05 0.05 0.05 0.04 0.03 0.02 0.03 0.05 0.08 0.10 0.09
0.02 0.03 0.03 0.03 0.04 0.05 0.03 0.03 0.01 0.01 0.01 0.01 0.01 0.01 0.01 0.02 0.04 0.06 0.08 0.08 0.08 0.08 0.07 0.05 0.04 0.03 0.03 0.04 0.04 0.05 0.05 0.05 0.04 0.05 0.04 0.03 0.04 0.03 0.03 0.03 0.05 0.07 0.06
0.01 0.02 0.03 0.03 0.04 0.04 0.03 0.02 0.01 0.01 0.01 0.01 0.01 0.02 0.03 0.04 0.05 0.06 0.08 0.08 0.08 0.07 0.08 0.06 0.04 0.03 0.04 0.05 0.06 0.05 0.05 0.06 0.05 0.05 0.03 0.03 0.03 0.03 0.03 0.04 0.04 0.04 0.03
0.01 0.01 0.02 0.03 0.03 0.04 0.04 0.03 0.03 0.02 0.02 0.02 0.01 0.02 0.03 0.04 0.04 0.05 0.06 0.06 0.07 0.06 0.06 0.05 0.04 0.04 0.03 0.04 0.05 0.05 0.05 0.06 0.05 0.04 0.03 0.03 0.03 0.04 0.03 0.03 0.03 0.03 0.03
0.01 0.01 0.02 0.03 0.03 0.03 0.03 0.04 0.03 0.02 0.02 0.02 0.02 0.02 0.03 0.03 0.05 0.06 0.06 0.07 0.08 0.05 0.04 0.03 0.02 0.02 0.02 0.03 0.03 0.02 0.03 0.04 0.04 0.04 0.04 0.03 0.04 0.05 0.04 0.04 0.03 0.03 0.02
0.01 0.02 0.03 0.03 0.03 0.03 0.03 0.04 0.04 0.04 0.03 0.01 0.01 0.02 0.02 0.03 0.05 0.06 0.04 0.06 0.08 0.08 0.05 0.02 0.01 0.01 0.01 0.02 0.02 0.02 0.02 0.03 0.05 0.07 0.08 0.07 0.06 0.05 0.04 0.04 0.03 0.03 0.03
0.03 0.04 0.04 0.04 0.04 0.04 0.04 0.04 0.05 0.04 0.03 0.01 0.02 0.05 0.06 0.06 0.06 0.05 0.04 0.04 0.05 0.06 0.04 0.03 0.02 0.02 0.01 0.01 0.02 0.02 0.02 0.02 0.03 0.04 0.05 0.05 0.05 0.05 0.04 0.03 0.03 0.03 0.03
0.06 0.06 0.05 0.05 0.03 0.04 0.03 0.04 0.05 0.04 0.03 0.02 0.01 0.03 0.07 0.06 0.04 0.04 0.03 0.03 0.04 0.05 0.05 0.03 0.02 0.01 0.01 0.01 0.02 0.02 0.02 0.01 0.01 0.02 0.03 0.04 0.04 0.03 0.03 0.03 0.03 0.03 0.03
0.08 0.07 0.05 0.03 0.03 0.03 0.03 0.04 0.04 0.04 0.04 0.04 0.03 0.02 0.04 0.07 0.04 0.04 0.03 0.02 0.03 0.03 0.04 0.02 0.02 0.02 0.02 0.02 0.02 0.01 0.01 0.02 0.02 0.02 0.02 0.03 0.04 0.03 0.03 0.03 0.03 0.02 0.03
0.08 0.07 0.06 0.04 0.03 0.04 0.04 0.04 0.05 0.04 0.04 0.06 0.07 0.06 0.07 0.08 0.06 0.04 0.04 0.03 0.03 0.04 0.05 0.04 0.04 0.04 0.03 0.03 0.03 0.03 0.03 0.02 0.02 0.02 0.03 0.02 0.03 0.03 0.03 0.03 0.03 0.02 0.02
0.08 0.07 0.07 0.07 0.06 0.06 0.06 0.06 0.05 0.04 0.03 0.05 0.07 0.07 0.09 0.10 0.07 0.05 0.04 0.04 0.04 0.04 0.05 0.05 0.05 0.05 0.03 0.02 0.02 0.03 0.03 0.03 0.04 0.03 0.04 0.04 0.03 0.03 0.03 0.03 0.03 0.03 0.03
0.07 0.07 0.07 0.07 0.05 0.04 0.03 0.03 0.02 0.02 0.03 0.07 0.07 0.07 0.06 0.05 0.05 0.05 0.04 0.03 0.03 0.03 0.04 0.05 0.05 0.04 0.03 0.03 0.03 0.03 0.02 0.03 0.03 0.03 0.05 0.05 0.05 0.05 0.04 0.03 0.03 0.03 0.03
0.05 0.04 0.04 0.03 0.02 0.02 0.01 0.01 0.02 0.02 0.03 0.05 0.05 0.03 0.02 0.02 0.03 0.03 0.03 0.03 0.03 0.02 0.02 0.03 0.03 0.02 0.02 0.01 0.01 0.01 0.01 0.01 0.01 0.01 0.02 0.02 0.02 0.03 0.03 0.03 0.04 0.03 0.04
0.06 0.05 0.05 0.04 0.04 0.03 0.02 0.02 0.02 0.02 0.03 0.04 0.05 0.04 0.02 0.02 0.03 0.03 0.03 0.02 0.02 0.03 0.04 0.03 0.03 0.03 0.02 0.02 0.01 0.01 0.01 0.01 0.01 0.01 0.01 0.02 0.02 0.02 0.03 0.03 0.03 0.03 0.03
0.07 0.09 0.08 0.05 0.05 0.04 0.03 0.03 0.02 0.02 0.02 0.03 0.04 0.04 0.04 0.03 0.03 0.02 0.03 0.03 0.04 0.04 0.05 0.05 0.04 0.03 0.03 0.02 0.02 0.01 0.01 0.01 0.01 0.01 0.01 0.02 0.02 0.03 0.04 0.03 0.02 0.02 0.02
0.11 0.12 0.11 0.07 0.05 0.04 0.04 0.04 0.03 0.03 0.03 0.03 0.04 0.04 0.05 0.05 0.04 0.03 0.03 0.03 0.03 0.03 0.04 0.04 0.04 0.03 0.03 0.02 0.01 0.01 0.01 0.01 0.01 0.02 0.02 0.03 0.02 0.03 0.04 0.03 0.02 0.02 0.02
0.12 0.12 0.11 0.09 0.06 0.05 0.05 0.05 0.05 0.05 0.05 0.05 0.04 0.03 0.03 0.05 0.06 0.06 0.05 0.03 0.02 0.02 0.03 0.03 0.03 0.02 0.02 0.01 0.01 0.00 0.01 0.01 0.01 0.02 0.02 0.02 0.03 0.04 0.05 0.04 0.03 0.03 0.02
0.09 0.10 0.12 0.10 0.07 0.05 0.05 0.05 0.05 0.05 0.05 0.05 0.03 0.03 0.02 0.03 0.05 0.07 0.06 0.03 0.03 0.03 0.03 0.03 0.03 0.02 0.01 0.01 0.01 0.00 0.01 0.01 0.01 0.01 0.02 0.03 0.04 0.05 0.05 0.04 0.04 0.04 0.03
0.07 0.09 0.11 0.10 0.08 0.06 0.05 0.05 0.05 0.05 0.05 0.04 0.04 0.04 0.04 0.03 0.05 0.06 0.05 0.04 0.04 0.04 0.04 0.03 0.03 0.02 0.01 0.01 0.01 0.01 0.01 0.01 0.01 0.01 0.02 0.03 0.03 0.03 0.03 0.03 0.03 0.03 0.03
0.05 0.08 0.10 0.10 0.09 0.09 0.08 0.07 0.06 0.06 0.06 0.06 0.06 0.06 0.06 0.05 0.07 0.08 0.06 0.04 0.03 0.04 0.04 0.03 0.03 0.01 0.01 0.01 0.01 0.01 0.01 0.01 0.01 0.01 0.01 0.02 0.01 0.02 0.02 0.02 0.02 0.02 0.03
0.07 0.07 0.07 0.09 0.11 0.11 0.09 0.08 0.07 0.06 0.06 0.06 0.06 0.07 0.08 0.07 0.09 0.12 0.09 0.06 0.04 0.03 0.04 0.04 0.03 0.02 0.01 0.01 0.01 0.01 0.01 0.01 0.01 0.01 0.01 0.01 0.02 0.01 0.01 0.01 0.01 0.02 0.03
0.05 0.06 0.06 0.08 0.10 0.11 0.10 0.08 0.06 0.06 0.06 0.06 0.07 0.09 0.09 0.09 0.09 0.11 0.10 0.10 0.07 0.04 0.04 0.04 0.04 0.03 0.03 0.02 0.02 0.02 0.02 0.02 0.03 0.02 0.01 0.01 0.02 0.02 0.01 0.01 0.02 0.03 0.03
MSLP
1001.98 1001.66 1001.45 1001.35 1001.37 1001.54 1001.87 1002.37 1003.01 1003.77 1004.59 1005.43 1006.22 1006.92 1007.51 1007.98 1008.35 1008.65 1008.94 1009.25 1009.61 1010.06 1010.57 1011.15 1011.77 1012.39 1012.99 1013.55 1014.05 1014.51 1014.90 1015.25 1015.54 1015.78 1015.96 1016.09 1016.16 1016.17 1016.13 1016.07 1016.00 1015.96 1015.95
1001.55 1001.20 1000.92 1000.72 1000.63 1000.68 1000.90 1001.31 1001.92 1002.69 1003.57 1004.50 1005.41 1006.23 1006.92 1007.46 1007.87 1008.19 1008.47 1008.76 1009.11 1009.53 1010.04 1010.63 1011.26 1011.90 1012.53 1013.13 1013.67 1014.16 1014.61 1015.02 1015.38 1015.70 1015.97 1016.17 1016.31 1016.36 1016.33 1016.25 1016.14 1016.02 1015.92
1001.00 1000.63 1000.31 1000.03 999.83 999.75 999.85 1000.17 1000.72 1001.48 1002.40 1003.41 1004.41 1005.35 1006.15 1006.79 1007.28 1007.65 1007.96 1008.26 1008.60 1009.02 1009.52 1010.10 1010.74 1011.39 1012.02 1012.62 1013.18 1013.70 1014.18 1014.64 1015.07 1015.48 1015.84 1016.13 1016.35 1016.47 1016.49 1016.42 1016.28 1016.11 1015.94
1000.38 1000.03 999.69 999.35 999.06 998.88 998.86 999.07 999.54 1000.26 1001.17 1002.21 1003.29 1004.32 1005.22 1005.96 1006.54 1006.99 1007.35 1007.69 1008.06 1008.50 1009.01 1009.60 1010.23 1010.87 1011.50 1012.09 1012.64 1013.16 1013.66 1014.15 1014.64 1015.11 1015.56 1015.95 1016.26 1016.46 1016.55 1016.51 1016.39 1016.20 1015.99
999.80 999.50 999.18 998.82 998.47 998.20 998.07 998.16 998.52 999.15 1000.01 1001.04 1002.13 1003.20 1004.17 1004.99 1005.65 1006.18 1006.62 1007.03 1007.46 1007.93 1008.48 1009.08 1009.72 1010.36 1010.98 1011.55 1012.09 1012.60 1013.09 1013.59 1014.10 1014.63 1015.14 1015.62 1016.02 1016.31 1016.47 1016.50 1016.42 1016.24 1016.02
999.39 999.17 998.90 998.56 998.18 997.84 997.61 997.58 997.81 998.31 999.06 1000.00 1001.04 1002.08 1003.07 1003.92 1004.64 1005.24 1005.76 1006.24 1006.74 1007.29 1007.89 1008.53 1009.19 1009.84 1010.46 1011.02 1011.54 1012.02 1012.49 1012.98 1013.50 1014.05 1014.60 1015.13 1015.61 1015.98 1016.23 1016.34 1016.32 1016.19 1015.99
999.26 999.14 998.94 998.64 998.26 997.88 997.56 997.41 997.49 997.83 998.42 999.21 1000.13 1001.08 1002.00 1002.84 1003.57 1004.21 1004.78 1005.34 1005.92 1006.53 1007.20 1007.91 1008.61 1009.29 1009.92 1010.48 1010.98 1011.44 1011.89 1012.35 1012.85 1013.39 1013.96 1014.52 1015.04 1015.49 1015.81 1016.01 1016.08 1016.02 1015.88
999.45 999.44 999.32 999.08 998.73 998.32 997.93 997.66 997.59 997.76 998.16 998.75 999.49 1000.29 1001.09 1001.85 1002.53 1003.16 1003.76 1004.36 1005.00 1005.69 1006.43 1007.20 1007.96 1008.69 1009.35 1009.92 1010.42 1010.86 1011.28 1011.71 1012.18 1012.69 1013.23 1013.80 1014.34 1014.83 1015.23 1015.51 1015.67 1015.72 1015.67
999.94 1000.02 999.99 999.81 999.49 999.08 998.65 998.29 998.08 998.07 998.27 998.66 999.18 999.79 1000.42 1001.04 1001.63 1002.21 1002.79 1003.40 1004.07 1004.80 1005.60 1006.42 1007.25 1008.02 1008.72 1009.32 1009.83 1010.27 1010.67 1011.07 1011.49 1011.96 1012.47 1013.01 1013.55 1014.07 1014.51 1014.87 1015.13 1015.28 1015.33
1000.62 1000.78 1000.83 1000.71 1000.43 1000.03 999.58 999.16 998.85 998.69 998.71 998.90 999.21 999.61 1000.05 1000.51 1000.97 1001.44 1001.96 1002.53 1003.19 1003.94 1004.76 1005.62 1006.48 1007.29 1008.03 1008.67 1009.21 1009.66 1010.05 1010.42 1010.81 1011.23 1011.69 1012.19 1012.71 1013.22 1013.70 1014.11 1014.45 1014.71 1014.88
1001.37 1001.59 1001.68 1001.61 1001.37 1001.00 1000.55 1000.11 999.74 999.49 999.39 999.41 999.55 999.76 1000.01 1000.29 1000.60 1000.95 1001.36 1001.86 1002.46 1003.17 1003.97 1004.83 1005.70 1006.54 1007.30 1007.97 1008.54 1009.01 1009.41 1009.77 1010.13 1010.51 1010.93 1011.38 1011.85 1012.34 1012.82 1013.27 1013.67 1014.02 1014.31
1002.08 1002.32 1002.43 1002.38 1002.18 1001.84 1001.42 1001.00 1000.62 1000.34 1000.16 1000.08 1000.09 1000.15 1000.25 1000.38 1000.53 1000.74 1001.03 1001.41 1001.92 1002.55 1003.29 1004.10 1004.94 1005.77 1006.55 1007.23 1007.82 1008.32 1008.74 1009.11 1009.45 1009.80 1010.17 1010.57 1011.00 1011.45 1011.91 1012.37 1012.81 1013.23 1013.61
1002.66 1002.89 1003.00 1002.95 1002.76 1002.46 1002.10 1001.72 1001.38 1001.10 1000.91 1000.79 1000.72 1000.69 1000.67 1000.67 1000.69 1000.77 1000.92 1001.18 1001.57 1002.08 1002.72 1003.46 1004.24 1005.03 1005.78 1006.47 1007.07 1007.59 1008.03 1008.42 1008.76 1009.10 1009.44 1009.79 1010.17 1010.57 1011.00 1011.45 1011.90 1012.36 1012.81
1003.11 1003.30 1003.38 1003.31 1003.13 1002.86 1002.54 1002.22 1001.94 1001.71 1001.54 1001.42 1001.32 1001.23 1001.14 1001.04 1000.96 1000.92 1000.95 1001.08 1001.34 1001.74 1002.26 1002.88 1003.58 1004.30 1005.01 1005.68 1006.29 1006.83 1007.29 1007.70 1008.06 1008.39 1008.71 1009.04 1009.37 1009.73 1010.12 1010.54 1010.98 1011.45 1011.95
1003.46 1003.59 1003.61 1003.51 1003.32 1003.06 1002.78 1002.52 1002.29 1002.11 1001.98 1001.87 1001.76 1001.65 1001.50 1001.34 1001.18 1001.05 1000.98 1001.00 1001.15 1001.43 1001.83 1002.35 1002.95 1003.60 1004.26 1004.90 1005.50 1006.04 1006.53 1006.96 1007.34 1007.69 1008.02 1008.33 1008.64 1008.96 1009.30 1009.68 1010.11 1010.57 1011.08
1003.76 1003.83 1003.79 1003.64 1003.41 1003.15 1002.88 1002.65 1002.46 1002.31 1002.19 1002.09 1001.97 1001.83 1001.65 1001.44 1001.22 1001.02 1000.88 1000.83 1000.89 1001.08 1001.39 1001.81 1002.33 1002.91 1003.51 1004.12 1004.71 1005.26 1005.77 1006.24 1006.65 1007.03 1007.37 1007.69 1007.99 1008.29 1008.61 1008.96 1009.35 1009.80 1010.29
1004.07 1004.08 1003.97 1003.76 1003.49 1003.20 1002.93 1002.68 1002.49 1002.33 1002.19 1002.06 1001.90 1001.72 1001.49 1001.24 1000.98 1000.74 1000.56 1000.47 1000.48 1000.62 1000.88 1001.25 1001.70 1002.23 1002.80 1003.38 1003.97 1004.53 1005.07 1005.57 1006.03 1006.45 1006.83 1007.17 1007.49 1007.80 1008.10 1008.43 1008.80 1009.22 1009.69
1004.43 1004.38 1004.21 1003.94 1003.62 1003.29 1002.97 1002.69 1002.44 1002.22 1002.02 1001.81 1001.57 1001.31 1001.03 1000.72 1000.43 1000.17 999.98 999.89 999.90 1000.03 1000.28 1000.64 1001.09 1001.60 1002.16 1002.74 1003.33 1003.91 1004.49 1005.03 1005.54 1006.02 1006.45 1006.85 1007.20 1007.53 1007.85 1008.17 1008.53 1008.92 1009.37
1004.83 1004.72 1004.50 1004.19 1003.82 1003.44 1003.06 1002.71 1002.37 1002.05 1001.74 1001.41 1001.07 1000.71 1000.34 999.98 999.65 999.39 999.21 999.15 999.20 999.37 999.66 1000.05 1000.52 1001.06 1001.63 1002.23 1002.85 1003.47 1004.08 1004.68 1005.25 1005.79 1006.29 1006.74 1007.16 1007.53 1007.88 1008.22 1008.57 1008.95 1009.37
1005.22 1005.08 1004.82 1004.48 1004.08 1003.65 1003.22 1002.78 1002.34 1001.90 1001.45 1000.99 1000.52 1000.04 999.57 999.15 998.80 998.53 998.39 998.37 998.49 998.74 999.10 999.55 1000.08 1000.67 1001.29 1001.93 1002.59 1003.25 1003.91 1004.56 1005.19 1005.79 1006.36 1006.89 1007.37 1007.80 1008.20 1008.57 1008.93 1009.30 1009.69
1005.56 1005.40 1005.13 1004.78 1004.37 1003.92 1003.43 1002.92 1002.39 1001.84 1001.26 1000.66 1000.06 999.47 998.92 998.43 998.06 997.80 997.69 997.74 997.93 998.26 998.70 999.24 999.85 1000.50 1001.18 1001.87 1002.57 1003.28 1003.98 1004.68 1005.37 1006.03 1006.66 1007.26 1007.80 1008.29 1008.74 1009.14 1009.52 1009.89 1010.25
1005.82 1005.65 1005.39 1005.06 1004.66 1004.20 1003.70 1003.15 1002.56 1001.92 1001.24 1000.54 999.84 999.16 998.54 998.02 997.62 997.38 997.31 997.41 997.67 998.07 998.59 999.21 999.88 1000.60 1001.33 1002.07 1002.82 1003.56 1004.30 1005.03 1005.76 1006.46 1007.14 1007.79 1008.38 1008.93 1009.42 1009.86 1010.25 1010.61 1010.95
1005.99 1005.83 1005.60 1005.30 1004.94 1004.52 1004.03 1003.48 1002.87 1002.19 1001.47 1000.71 999.96 999.24 998.58 998.04 997.65 997.42 997.38 997.52 997.83 998.28 998.86 999.52 1000.25 1001.00 1001.77 1002.54 1003.30 1004.07 1004.82 1005.57 1006.31 1007.04 1007.74 1008.41 1009.04 1009.61 1010.13 1010.59 1010.99 1011.35 1011.67
1006.10 1005.96 1005.77 1005.52 1005.22 1004.85 1004.42 1003.91 1003.33 1002.67 1001.96 1001.21 1000.46 999.75 999.11 998.59 998.21 998.00 997.98 998.14 998.47 998.94 999.53 1000.21 1000.94 1001.70 1002.47 1003.24 1004.01 1004.76 1005.51 1006.25 1006.98 1007.69 1008.39 1009.05 1009.67 1010.25 1010.77 1011.24 1011.64 1012.00 1012.30
1006.19 1006.08 1005.94 1005.75 1005.52 1005.23 1004.87 1004.44 1003.93 1003.34 1002.70 1002.02 1001.34 1000.68 1000.10 999.63 999.29 999.11 999.11 999.27 999.59 1000.04 1000.60 1001.25 1001.95 1002.68 1003.42 1004.15 1004.88 1005.60 1006.31 1007.01 1007.70 1008.37 1009.03 1009.66 1010.25 1010.80 1011.30 1011.75 1012.15 1012.49 1012.78
1006.34 1006.26 1006.16 1006.03 1005.87 1005.66 1005.39 1005.05 1004.64 1004.16 1003.63 1003.06 1002.49 1001.95 1001.46 1001.07 1000.79 1000.65 1000.66 1000.81 1001.09 1001.50 1002.00 1002.58 1003.21 1003.87 1004.54 1005.22 1005.89 1006.54 1007.19 1007.83 1008.45 1009.06 1009.64 1010.21 1010.75 1011.25 1011.71 1012.12 1012.49 1012.81 1013.09
Thickness
5768 5768 5767 5765 5763 5761 5758 5756 5753 5750 5748 5745 5742 5739 5736 5735 5734 5734 5733 5732 5731 5729 5727 5726 5724 5722 5721 5719 5718 5716 5714 5712 5711 5709 5707 5708 5709 5710 5709 5709 5709 5709 5708
5760 5762 5762 5761 5760 5757 5755 5752 5749 5747 5746 5743 5740 5738 5735 5733 5732 5731 5730 5729 5727 5726 5725 5723 5721 5719 5717 5716 5714 5712 5710 5708 5707 5705 5701 5699 5701 5704 5706 5705 5705 5706 5705
5756 5757 5757 5756 5756 5754 5752 5750 5747 5745 5743 5740 5737 5734 5731 5729 5727 5726 5725 5725 5724 5723 5722 5720 5718 5716 5714 5712 5711 5709 5707 5704 5703 5703 5700 5695 5694 5696 5699 5701 5702 5702 5701
5753 5753 5753 5752 5752 5751 5750 5747 5744 5741 5739 5736 5733 5730 5727 5723 5723 5723 5722 5721 5720 5719 5718 5716 5715 5713 5711 5710 5708 5708 5706 5703 5700 5699 5699 5698 5697 5693 5692 5695 5696 5697 5697
5750 5750 5750 5750 5750 5748 5746 5743 5740 5737 5735 5732 5730 5726 5723 5721 5720 5719 5718 5716 5716 5715 5714 5712 5711 5709 5708 5707 5705 5704 5703 5701 5699 5697 5695 5694 5693 5693 5690 5688 5690 5692 5693
5747 5747 5747 5746 5745 5744 5741 5738 5735 5732 5730 5728 5726 5723 5720 5718 5716 5714 5713 5711 5710 5709 5708 5708 5706 5705 5704 5703 5702 5701 5700 5698 5696 5695 5694 5692 5690 5689 5688 5686 5685 5686 5688
5742 5742 5741 5740 5739 5738 5736 5733 5730 5727 5725 5724 5721 5720 5717 5715 5713 5711 5709 5707 5705 5705 5704 5703 5702 5701 5700 5700 5698 5697 5696 5694 5693 5692 5691 5690 5690 5689 5687 5685 5682 5681 5682
5737 5738 5737 5736 5735 5734 5731 5728 5726 5723 5721 5719 5717 5715 5713 5711 5709 5708 5706 5704 5702 5702 5701 5699 5699 5698 5697 5696 5694 5693 5691 5690 5689 5689 5687 5687 5686 5685 5685 5683 5680 5677 5676
5733 5734 5733 5732 5730 5728 5726 5724 5721 5719 5716 5715 5713 5711 5709 5708 5706 5704 5702 5700 5699 5698 5696 5695 5694 5694 5693 5692 5690 5688 5687 5686 5685 5684 5683 5682 5682 5681 5681 5680 5680 5676 5673
5728 5729 5728 5727 5725 5724 5721 5719 5717 5714 5712 5711 5709 5708 5705 5704 5702 5700 5698 5696 5695 5693 5691 5690 5689 5688 5688 5687 5685 5683 5682 5681 5680 5679 5678 5677 5676 5675 5675 5675 5675 5675 5673
5722 5722 5722 5721 5720 5718 5715 5713 5711 5709 5707 5706 5705 5703 5701 5699 5697 5696 5694 5692 5690 5688 5687 5686 5684 5683 5682 5681 5679 5678 5677 5676 5675 5674 5673 5672 5671 5670 5670 5670 5670 5669 5669
5716 5715 5714 5713 5712 5710 5709 5707 5705 5704 5702 5701 5699 5698 5696 5694 5692 5691 5689 5687 5685 5684 5683 5681 5679 5678 5677 5675 5674 5673 5672 5671 5670 5669 5668 5667 5666 5665 5664 5665 5665 5664 5664
5708 5708 5706 5705 5705 5705 5703 5701 5700 5698 5697 5696 5694 5692 5690 5688 5687 5685 5684 5682 5680 5678 5677 5675 5674 5673 5672 5670 5669 5668 5667 5666 5665 5664 5663 5662 5661 5660 5659 5660 5659 5659 5660
5701 5701 5699 5699 5699 5699 5698 5695 5694 5694 5692 5690 5688 5687 5685 5683 5681 5680 5678 5676 5675 5673 5671 5670 5669 5668 5666 5665 5664 5663 5662 5661 5660 5659 5658 5657 5657 5656 5655 5655 5655 5654 5654
5693 5694 5694 5693 5692 5692 5691 5690 5689 5689 5687 5685 5683 5682 5680 5678 5676 5674 5673 5671 5669 5667 5665 5664 5662 5662 5661 5660 5658 5657 5656 5655 5654 5653 5653 5653 5652 5652 5651 5651 5650 5649 5648
5685 5686 5687 5687 5687 5686 5686 5685 5684 5683 5682 5679 5677 5676 5674 5672 5670 5668 5667 5665 5663 5661 5659 5658 5656 5655 5655 5654 5652 5651 5650 5649 5647 5646 5646 5647 5647 5647 5646 5646 5645 5645 5644
5679 5680 5680 5681 5681 5682 5682 5680 5680 5678 5676 5674 5673 5671 5669 5666 5664 5663 5661 5658 5656 5655 5653 5652 5650 5649 5648 5647 5646 5646 5644 5643 5641 5640 5640 5640 5641 5641 5640 5639 5639 5639 5639
5673 5674 5675 5675 5675 5676 5676 5675 5673 5672 5670 5668 5667 5666 5664 5661 5659 5657 5655 5653 5650 5648 5647 5646 5644 5643 5642 5641 5640 5639 5638 5637 5636 5635 5634 5634 5634 5635 5633 5633 5633 5632 5633
5666 5668 5669 5669 5669 5669 5669 5668 5666 5665 5664 5662 5660 5659 5658 5656 5653 5651 5649 5647 5645 5642 5641 5640 5638 5637 5636 5635 5634 5633 5632 5630 5630 5629 5629 5628 5628 5628 5627 5626 5626 5626 5626
5659 5661 5661 5661 5662 5661 5661 5659 5658 5657 5657 5656 5655 5653 5651 5649 5647 5645 5643 5641 5640 5638 5636 5634 5633 5632 5630 5629 5628 5627 5626 5624 5624 5623 5623 5622 5621 5621 5620 5619 5620 5620 5620
5650 5652 5653 5653 5654 5654 5652 5651 5650 5650 5650 5649 5648 5645 5643 5642 5641 5639 5637 5635 5634 5633 5631 5629 5627 5626 5625 5623 5622 5621 5619 5619 5618 5617 5617 5616 5615 5614 5613 5613 5614 5615 5614
5641 5643 5644 5644 5645 5646 5645 5643 5642 5643 5642 5641 5640 5638 5636 5635 5634 5632 5630 5629 5627 5626 5624 5622 5620 5619 5619 5618 5616 5615 5614 5614 5613 5612 5612 5611 5610 5609 5608 5608 5609 5608 5607
5632 5633 5634 5635 5636 5636 5636 5635 5634 5634 5634 5633 5631 5630 5629 5628 5626 5625 5623 5621 5620 5619 5617 5616 5614 5613 5613 5612 5611 5610 5609 5608 5607 5607 5606 5605 5605 5604 5604 5603 5603 5602 5602
5622 5624 5625 5626 5626 5626 5627 5627 5627 5627 5626 5625 5624 5623 5621 5619 5618 5617 5616 5615 5614 5613 5612 5610 5609 5608 5607 5606 5606 5605 5604 5603 5601 5600 5599 5598 5598 5598 5597 5597 5597 5596 5596
5613 5614 5615 5616 5617 5618 5619 5620 5620 5620 5618 5617 5617 5615 5614 5612 5610 5609 5608 5608 5608 5607 5606 5605 5604 5603 5602 5602 5600 5598 5598 5597 5595 5593 5592 5592 5591 5592 5592 5591 5591 5590 5590
5604 5605 5606 5608 5609 5609 5610 5612 5612 5613 5612 5611 5610 5609 5607 5606 5604 5603 5601 5601 5601 5600 5600 5599 5598 5597 5597 5596 5594 5593 5592 5590 5588 5587 5586 5586 5585 5585 5585 5585 5585 5585 5585